Location: Luxembourg
(49.6117°N, 6.1300°E)
Time: 21:22:58
(UTC+01:00)

ISS - Pass Details

Date: 18 October 2024
Orbit: 407 x 418 km, 51.6° (Epoch: 12 November)

Event Time Altitude Azimuth Distance (km) Brightness Sun altitude
Exits shadow 06:21:54 - 188° (S) 2,036 -0.4 -16.9°
Reaches altitude 10° 06:24:04 10° 163° (SSE) 1,463 -0.9 -16.6°
Maximum altitude 06:25:32 12° 136° (SE) 1,325 -0.7 -16.3°
Drops below altitude 10° 06:26:59 10° 110° (ESE) 1,467 0.1 -16.1°
Sets 06:30:01 0° 79° (E) 2,332 1.8 -15.6°
